Regional Weather Roundup
Issued by NWS

Home | Current Version | Previous Version | Graphics & Text | Print | Product List | Glossary On
Versions: 1 2 3 4 5 6 7 8 9 10 11 12 13 14 15 16 17 18 19 20 21 22 23 24 25 26 27
000
ASUS45 KCYS 281110
RWRWY

WYOMING REGIONAL WEATHER ROUNDUP
NATIONAL WEATHER SERVICE CHEYENNE WY
500 AM MDT SUN MAY 28 2017

NOTE:  "FAIR" INDICATES FEW OR NO CLOUDS BELOW 12,000 FEET
WITH NO SIGNIFICANT WEATHER AND/OR OBSTRUCTIONS TO VISIBILITY.

WYZ001-281200-
YELLOWSTONE NATIONAL PARK

CITY           SKY/WX    TMP DP  RH WIND       PRES   REMARKS
LK YELLOWSTONE   N/A     27  27 100 CALM      30.41S
W YELLOWSTONE  NOT AVBL

$$
WYZ002>013-054>058-071-098>099-281200-
NORTHERN WYOMING

CITY           SKY/WX    TMP DP  RH WIND       PRES   REMARKS
JACKSON        FAIR      32  30  93 CALM      30.37S
CODY           FAIR      53  31  42 NW7       30.26R
GREYBULL       FAIR      49  37  63 CALM      30.19S
WORLAND          N/A     43  39  86 S5        30.21R
SHERIDAN       MOCLDY    54  40  59 W10       30.17F
BUFFALO        FAIR      54  35  48 NW14      30.20S
GILLETTE       MOCLDY    50  40  68 W13       30.14R
HULETT         CLOUDY    52  37  58 W3        30.13R
NEWCASTLE      FAIR      41  37  87 N8        30.14S

$$
WYZ014>020-022>026-101>103-281200-
CENTRAL WYOMING

CITY           SKY/WX    TMP DP  RH WIND       PRES   REMARKS
BIG PINEY      FAIR      30  27  88 CALM      30.36S
PINEDALE       FAIR      28  27  93 NW5       30.36F WCI  23
DUBOIS         FAIR      34  30  86 NW8       30.34S WCI  27
LANDER         FAIR      45  30  55 CALM      30.26S
RIVERTON       FAIR      43  34  70 W13       30.26S
CASPER         FAIR      40  35  83 W7        30.24R
DOUGLAS        FAIR      40  36  86 N7        30.21S

$$
WYZ021-027>030-104>119-281200-
SOUTHERN WYOMING

CITY           SKY/WX    TMP DP  RH WIND       PRES   REMARKS
EVANSTON       FAIR      41  29  62 CALM      30.34S
KEMMERER         N/A     34  30  86 N10       30.36S WCI  26
FORT BRIDGER   FAIR      39  30  70 W8        30.36F WCI  34
ROCK SPRINGS   FAIR      38  29  70 S6        30.33S WCI  33
DIXON            N/A     33  29  83 CALM      30.36S
RAWLINS        FAIR      32  26  78 CALM      30.32S
SARATOGA       FAIR      34  32  93 SE8       30.34S WCI  27
LARAMIE        FAIR      28  25  88 SE9       30.30S WCI  19
CHEYENNE       FAIR      42  31  64 W12       30.25R
TORRINGTON     FAIR      41  38  89 W6        30.15S
PINE BLUFFS    FAIR      37  36  93 MISG      30.21S

$$




USA.gov is the U.S. government's official web portal to all federal, state and local government web resources and services.